FW0475 Weather Reports


Display with metric or nautical units.
time (UTC)temp
F
wind
direction
speed
MPH
gust
MPH
rain 1hr
in
rain 24hr
in
rain mn
in
humidity
%
barometer
mb
20260503212824 51 196 4.0 8.0 0.00 0.00 0.00 68 1008.0
20260503212338 50 164 4.0 7.0 0.00 0.00 0.00 69 1008.3
20260503211843 49 137 4.0 12.0 0.00 0.00 0.00 70 1008.3
20260503211339 49 190 3.0 12.0 0.00 0.00 0.00 70 1008.3
20260503210847 49 163 3.0 8.0 0.00 0.00 0.00 70 1008.5
20260503210340 49 121 4.0 9.0 0.00 0.00 0.00 69 1008.5
20260503205837 49 169 3.0 11.0 0.00 0.00 0.00 70 1008.5
20260503205325 49 139 4.0 11.0 0.00 0.00 0.00 69 1008.7
20260503204839 49 163 4.0 8.0 0.00 0.00 0.00 69 1008.7
20260503204326 49 148 3.0 8.0 0.00 0.00 0.00 69 1008.9
20260503203819 49 193 3.0 11.0 0.00 0.00 0.00 69 1008.9
20260503203335 49 186 4.0 11.0 0.00 0.00 0.00 70 1009.0
20260503202821 49 195 4.0 13.0 0.00 0.00 0.00 70 1009.2
20260503202336 48 155 6.0 13.0 0.00 0.00 0.00 70 1009.3
20260503201822 48 169 5.0 14.0 0.00 0.00 0.00 70 1009.4
20260503201339 48 195 5.0 14.0 0.00 0.00 0.00 70 1009.3
20260503200844 49 211 5.0 11.0 0.00 0.00 0.00 69 1009.3
20260503200328 48 194 3.0 10.0 0.00 0.00 0.00 70 1009.4
20260503195824 48 207 5.0 13.0 0.00 0.00 0.00 71 1009.6
20260503195356 48 224 5.0 13.0 0.00 0.00 0.00 71 1009.5
20260503194850 47 156 5.0 12.0 0.00 0.00 0.00 71 1009.5
20260503194323 47 283 6.0 12.0 0.00 0.00 0.00 71 1009.6
20260503193830 47 136 6.0 12.0 0.00 0.00 0.00 71 1009.6
20260503193316 47 213 6.0 16.0 0.00 0.00 0.00 71 1009.5
20260503192852 47 153 5.0 16.0 0.00 0.00 0.00 71 1009.5
20260503192320 47 236 4.0 16.0 0.00 0.00 0.00 71 1009.5
20260503191831 47 262 6.0 16.0 0.00 0.00 0.00 71 1009.4
20260503191328 47 257 8.0 18.0 0.00 0.00 0.00 70 1009.5
20260503190845 47 248 6.0 18.0 0.00 0.00 0.00 71 1009.4
20260503190328 47 208 8.0 16.0 0.00 0.00 0.00 70 1009.6
20260503185816 47 213 6.0 13.0 0.00 0.00 0.00 71 1009.7
20260503185334 47 241 6.0 18.0 0.00 0.00 0.00 71 1009.7
20260503184827 47 272 9.0 18.0 0.00 0.00 0.00 71 1009.7
20260503184317 47 168 7.0 17.0 0.00 0.00 0.00 71 1009.7
20260503183832 47 200 6.0 13.0 0.00 0.00 0.00 70 1009.9
20260503183325 47 159 6.0 18.0 0.00 0.00 0.00 70 1009.9
20260503182850 47 257 7.0 18.0 0.00 0.00 0.00 69 1010.1
20260503182322 48 226 5.0 14.0 0.00 0.00 0.00 68 1010.0
20260503181836 49 238 7.0 13.0 0.00 0.00 0.00 67 1010.2
20260503181333 50 236 7.0 11.0 0.00 0.00 0.00 66 1010.1
20260503180826 50 165 4.0 11.0 0.00 0.00 0.00 67 1010.2
20260503180331 49 219 5.0 14.0 0.00 0.00 0.00 67 1010.1
20260503175843 49 242 4.0 14.0 0.00 0.00 0.00 67 1010.2
20260503175316 49 255 5.0 14.0 0.00 0.00 0.00 67 1010.2
20260503174828 49 247 5.0 15.0 0.00 0.00 0.00 67 1010.4
20260503174345 49 202 7.0 15.0 0.00 0.00 0.00 67 1010.3
20260503173829 49 246 6.0 15.0 0.00 0.00 0.00 67 1010.5
20260503173325 48 198 6.0 19.0 0.00 0.00 0.00 67 1010.7
20260503172830 48 252 9.0 19.0 0.00 0.00 0.00 67 1010.6
20260503172345 49 206 8.0 17.0 0.00 0.00 0.00 67 1010.7
20260503171838 49 241 8.0 15.0 0.00 0.00 0.00 68 1010.7
20260503171325 49 236 7.0 14.0 0.00 0.00 0.00 68 1010.8
20260503170833 48 192 5.0 14.0 0.00 0.00 0.00 68 1010.8
20260503170321 48 177 5.0 12.0 0.00 0.00 0.00 68 1010.8
20260503150826 46 232 9.0 15.0 0.00 0.00 0.00 68 1011.5
20260503150320 46 237 9.0 17.0 0.00 0.00 0.00 68 1011.7
20260503131321 47 224 8.0 11.0 0.00 0.00 0.00 65 1011.9
20260503130833 46 264 5.0 10.0 0.00 0.00 0.00 67 1012.1
20260503130327 46 224 4.0 11.0 0.00 0.00 0.00 67 1012.2
20260503110323 45 235 6.0 10.0 0.00 0.00 0.00 68 1011.9
20260503090341 45 227 9.0 16.0 0.00 0.00 0.00 69 1012.3
20260503081329 45 234 9.0 15.0 0.00 0.00 0.00 68 1012.6
20260503080824 45 210 9.0 14.0 0.00 0.00 0.00 68 1012.6
20260503080319 45 250 8.0 16.0 0.00 0.00 0.00 69 1012.7
20260503072832 45 195 7.0 11.0 0.00 0.00 0.00 70 1012.8
20260503072404 45 196 6.0 11.0 0.00 0.00 0.00 70 1012.8
20260503071829 45 227 5.0 11.0 0.00 0.00 0.00 70 1012.9
20260503071326 45 219 3.0 10.0 0.00 0.00 0.00 70 1013.0
20260503070818 45 229 2.0 7.0 0.00 0.00 0.00 69 1013.0
20260503070334 45 158 2.0 5.0 0.00 0.00 0.00 69 1013.1
20260503060334 46 194 2.0 7.0 0.00 0.00 0.00 61 1013.9
20260503054825 46 144 2.0 5.0 0.00 0.00 0.00 63 1014.1
20260503054343 45 197 2.0 4.0 0.00 0.00 0.00 64 1014.1
20260503053828 45 136 2.0 8.0 0.00 0.00 0.00 64 1014.1
20260503053341 45 174 2.0 8.0 0.00 0.00 0.00 64 1014.2
20260503052843 45 177 2.0 4.0 0.00 0.00 0.00 65 1014.3
20260503052337 45 143 2.0 4.0 0.00 0.00 0.00 65 1014.3
20260503051820 45 150 1.0 5.0 0.00 0.00 0.00 64 1014.4
20260503051337 45 140 2.0 5.0 0.00 0.00 0.00 65 1014.5
20260503050824 45 59 1.0 7.0 0.00 0.00 0.00 65 1014.6
20260503050337 45 180 2.0 7.0 0.00 0.00 0.00 64 1014.6
20260503045822 44 150 1.0 4.0 0.00 0.00 0.00 65 1014.6
20260503045315 44 115 1.0 4.0 0.00 0.00 0.00 65 1014.6
20260503044849 44 143 1.0 4.0 0.00 0.00 0.00 65 1014.8
20260503044323 44 115 1.0 4.0 0.00 0.00 0.00 65 1014.8
20260503043831 44 81 1.0 3.0 0.00 0.00 0.00 65 1014.8
20260503043319 44 142 1.0 3.0 0.00 0.00 0.00 65 1014.8
20260503042836 44 145 1.0 3.0 0.00 0.00 0.00 64 1014.9
20260503042330 44 117 1.0 3.0 0.00 0.00 0.00 64 1015.0
20260503041839 44 151 1.0 4.0 0.00 0.00 0.00 65 1015.0
20260503041332 44 96 1.0 5.0 0.00 0.00 0.00 64 1015.0
20260503040825 44 168 1.0 5.0 0.00 0.00 0.00 64 1015.2
20260503040338 44 171 1.0 3.0 0.00 0.00 0.00 64 1015.2
20260503035835 44 180 1.0 2.0 0.00 0.00 0.00 65 1015.3
20260503035346 44 178 1.0 2.0 0.00 0.00 0.00 65 1015.3
20260503034841 44 178 0.0 5.0 0.00 0.00 0.00 65 1015.3
20260503034327 44 184 2.0 5.0 0.00 0.00 0.00 65 1015.4
20260503033823 44 217 1.0 3.0 0.00 0.00 0.00 65 1015.5
20260503033332 44 113 1.0 3.0 0.00 0.00 0.00 65 1015.6
20260503032826 44 128 2.0 3.0 0.00 0.00 0.00 65 1015.5
20260503032322 43 205 1.0 2.0 0.00 0.00 0.00 65 1015.6
20260503031831 43 212 0.0 2.0 0.00 0.00 0.00 66 1015.7
20260503031326 43 113 1.0 2.0 0.00 0.00 0.00 66 1015.6
20260503030836 43 227 0.0 2.0 0.00 0.00 0.00 66 1015.8
20260503030331 43 145 1.0 2.0 0.00 0.00 0.00 66 1015.9
20260503025836 43 153 1.0 3.0 0.00 0.00 0.00 66 1015.9
20260503025345 43 109 1.0 4.0 0.00 0.00 0.00 66 1016.0
20260503024820 43 108 1.0 4.0 0.00 0.00 0.00 67 1016.0
20260503024356 43 51 1.0 4.0 0.00 0.00 0.00 67 1016.0
20260503023827 43 92 0.0 2.0 0.00 0.00 0.00 67 1016.1
20260503023318 43 48 1.0 2.0 0.00 0.00 0.00 67 1016.2
20260503022833 43 166 1.0 3.0 0.00 0.00 0.00 67 1016.1
20260503022326 43 178 1.0 2.0 0.00 0.00 0.00 67 1016.2
20260503021824 43 194 1.0 3.0 0.00 0.00 0.00 67 1016.2
20260503021332 43 78 1.0 3.0 0.00 0.00 0.00 68 1016.2
20260503020826 43 17 1.0 2.0 0.00 0.00 0.00 68 1016.2
20260503020317 43 69 1.0 2.0 0.00 0.00 0.00 67 1016.3
20260503015849 43 186 0.0 2.0 0.00 0.00 0.00 68 1016.3
20260503015324 43 163 0.0 4.0 0.00 0.00 0.00 67 1016.3
20260503014820 43 190 1.0 4.0 0.00 0.00 0.00 67 1016.3
20260503014336 43 246 1.0 4.0 0.00 0.00 0.00 67 1016.3
20260503013827 43 70 1.0 5.0 0.00 0.00 0.00 67 1016.3
20260503013323 43 112 2.0 5.0 0.00 0.00 0.00 67 1016.4
20260503012819 42 195 0.0 2.0 0.00 0.00 0.00 67 1016.4
20260503012332 42 166 1.0 7.0 0.00 0.00 0.00 67 1016.5
20260503011822 42 171 1.0 7.0 0.00 0.00 0.00 68 1016.5
20260503011406 42 193 1.0 4.0 0.00 0.00 0.00 68 1016.5
20260503010849 42 215 2.0 5.0 0.00 0.00 0.00 67 1016.6
20260503010337 43 202 1.0 8.0 0.00 0.00 0.00 67 1016.5
20260503005823 43 242 3.0 8.0 0.00 0.00 0.00 67 1016.5
20260503005334 43 213 3.0 8.0 0.00 0.00 0.00 67 1016.5
20260503004828 43 205 2.0 8.0 0.00 0.00 0.00 67 1016.4
20260503004347 43 172 2.0 9.0 0.00 0.00 0.00 67 1016.5
20260503003822 43 205 2.0 9.0 0.00 0.00 0.00 66 1016.5
20260503003334 43 227 3.0 7.0 0.00 0.00 0.00 66 1016.6
20260503002823 44 171 3.0 8.0 0.00 0.00 0.00 65 1016.5
20260503002337 44 217 2.0 8.0 0.00 0.00 0.00 64 1016.6
20260503001844 44 232 2.0 7.0 0.00 0.00 0.00 62 1016.6
20260503001346 44 259 3.0 8.0 0.00 0.00 0.00 62 1016.7
20260503000850 44 224 3.0 8.0 0.00 0.00 0.00 62 1016.7
20260503000341 45 235 3.0 11.0 0.00 0.00 0.00 62 1016.8
20260502235816 44 210 3.0 11.0 0.00 0.00 0.00 61 1016.9
20260502235332 44 240 4.0 10.0 0.00 0.00 0.00 61 1016.9
20260502234827 44 193 3.0 12.0 0.00 0.00 0.00 63 1016.9
20260502234323 44 210 7.0 12.0 0.00 0.00 0.00 61 1017.0
20260502233835 44 241 6.0 10.0 0.00 0.00 0.00 62 1017.0
20260502233325 44 202 7.0 11.0 0.00 0.00 0.00 63 1017.0
20260502232817 44 238 6.0 11.0 0.00 0.00 0.00 62 1017.1
20260502232351 44 234 6.0 11.0 0.00 0.00 0.00 63 1017.1
20260502231847 44 238 6.0 11.0 0.00 0.00 0.00 62 1017.3
20260502231357 44 225 6.0 11.0 0.00 0.00 0.00 62 1017.3
20260502230823 44 210 6.0 10.0 0.00 0.00 0.00 61 1017.3
20260502230338 45 221 6.0 10.0 0.00 0.00 0.00 62 1017.4
20260502225845 44 215 5.0 10.0 0.00 0.00 0.00 61 1017.4
20260502225357 44 198 5.0 10.0 0.00 0.00 0.00 62 1017.4
20260502224821 45 219 7.0 10.0 0.00 0.00 0.00 62 1017.4
20260502224335 45 214 6.0 9.0 0.00 0.00 0.00 62 1017.5
20260502223827 45 231 6.0 10.0 0.00 0.00 0.00 62 1017.6
20260502223324 45 196 6.0 10.0 0.00 0.00 0.00 64 1017.6
20260502222819 45 206 6.0 9.0 0.00 0.00 0.00 63 1017.6
20260502222333 45 232 5.0 10.0 0.00 0.00 0.00 64 1017.7
20260502221818 45 221 6.0 10.0 0.00 0.00 0.00 64 1017.7
20260502221401 45 207 6.0 10.0 0.00 0.00 0.00 63 1017.7
20260502220830 45 227 6.0 9.0 0.00 0.00 0.00 62 1017.7
20260502220343 45 194 4.0 8.0 0.00 0.00 0.00 61 1017.7
20260502215828 45 205 4.0 9.0 0.00 0.00 0.00 64 1017.7
20260502215322 45 209 5.0 9.0 0.00 0.00 0.00 59 1017.7
20260502214850 45 232 4.0 8.0 0.00 0.00 0.00 63 1017.7
20260502214315 45 209 5.0 8.0 0.00 0.00 0.00 61 1017.7
20260502213830 45 237 6.0 8.0 0.00 0.00 0.00 61 1017.7
20260502213324 45 241 4.0 8.0 0.00 0.00 0.00 63 1017.7